Location: Arleux
(50.3632°N, 2.8721°E)
Time: 14:11:45
(UTC+00:00)

Cosmos 1733 Rocket - Pass Details

Date: 15 December 2019
Orbit: 604 x 627 km, 82.5° (Epoch: 25 January)

Event Time Altitude Azimuth Distance (km) Brightness Sun altitude
Rises 05:47:01 0° 197° (SSW) 2,848 6.5 -17.1°
Reaches altitude 10° 05:49:14 10° 201° (SSW) 1,950 5.6 -16.8°
Maximum altitude 05:53:31 62° 283° (WNW) 685 2.9 -16.2°
Drops below altitude 10° 05:57:50 10° 4° (N) 1,973 5.5 -15.5°
Sets 06:00:06 0° 8° (N) 2,885 6.4 -15.2°
